AirNav   Everest Fuels
 
 1643 users online  

MO21 St Joseph Medical Center Heliport
Kansas City, Missouri, USA

GOING TO KANSAS CITY?


FAA INFORMATION EFFECTIVE 02 JANUARY 2020

Location

FAA Identifier: MO21
Lat/Long: 38-56-10.8000N 094-36-18.4600W
38-56.180000N 094-36.307667W
38.9363333,-94.6051278
(estimated)
Elevation: 900 ft. / 274 m (estimated)
Variation: 05E (1985)
Time zone: UTC -6 (UTC -5 during Daylight Saving Time)
Zip code: 64114

Heliport Operations

Heliport use: Private use, MEDICAL.
Activation date: 11/1988
Control tower: no
ARTCC: KANSAS CITY CENTER
FSS: COLUMBIA FLIGHT SERVICE STATION
Attendance: CONTINUOUS
Wind indicator: lighted
Segmented circle: no
Lights: SS-SR

Heliport Communications

UNICOM: 123.05
WX ASOS at OJC (8 nm SW): PHONE 913-780-6969
WX ASOS at LXT (11 nm E): 124.175 (816-347-9807)
WX ASOS at MKC (11 nm N): PHONE 816-329-2843
WX ASOS at IXD (15 nm SW): 135.325 (913-780-6987)

Nearby radio navigation aids

VOR radial/distance  VOR name  Freq  Var
MCIr159/21.8KANSAS CITY VORTAC113.2505E
ANXr240/24.2NAPOLEON VORTAC114.0007E

 
NDB name  Hdg/Dist  Freq  Var  ID
HERBB025/12.642004EPK .--. -.-

Heliport Services

Runway Information

Helipad H1

Dimensions: 45 x 45 ft. / 14 x 14 m
Surface: asphalt
Runway edge lights: PERI
Latitude: 38-56.180000N
Longitude: 094-36.307667W
Elevation: 900.0 ft.
Traffic pattern: leftleft

Heliport Ownership and Management from official FAA records

Ownership: Privately-owned
Owner: ST JOSEPH HEALTH CENTER
1000 CARONDELET DR
KANSAS CITY, MO 64114
Phone 816-942-4400
Manager: RYAN SLOAN
ST JOSEPH HEALTH CENTER
1000 CARONDELET DR
Phone (816) 943-4713

Additional Remarks

SEE AIRSPACE LTR DATED 3/3/98.
FOR CD CTC KANSAS CITY APCH AT 816-329-2710.

Instrument Procedures

There are no published instrument procedures at MO21.

Some nearby airports with instrument procedures:

KOJC - Johnson County Executive Airport (8 nm SW)
KLXT - Lee's Summit Municipal Airport (11 nm E)
KMKC - Charles B Wheeler Downtown Airport (11 nm N)
KIXD - New Century AirCenter Airport (15 nm SW)
3GV - East Kansas City Airport (19 nm E)
 
Loc | Ops | Rwys | IFR | FBO | Links
Com | Nav | Svcs | Stats | Notes

Kansas City Aviation Department
 
Area around MO21 (St Joseph Medical Center Heliport)
 
Road maps at: MapQuest Bing Google
 
Aerial photo
No photo
 
Sectional chart

 
Airport distance calculator
Flying to St Joseph Medical Center Heliport? Find the distance to fly.

From to MO21

Sunrise and sunset
Times for 20-Jan-2020
 Local
(UTC-6)
 Zulu
(UTC)
Morning civil twilight07:0613:06
Sunrise07:3413:34
Sunset17:2523:25
Evening civil twilight17:5423:54

Current date and time
Zulu (UTC)  20-Jan-2020 18:38:15
Local (UTC-6)  20-Jan-2020 12:38:15
 
METAR
KOJC 
8nm SW 
201753Z 34006KT 10SM BKN055 OVC070 M08/M16 A3063 RMK AO2 SLP392 T10831156 11083 21111 50001
KMKC 
11nm N 
201815Z 34007KT 9SM SCT017 BKN047 OVC110 M09/M13 A3067 RMK AO2 SNE10 P0000 T10891133
KLXT 
11nm E 
201802Z AUTO 36008KT 2SM -SN M09/M13 A3064 RMK AO2 P0000 T10941133 $
KIXD 
15nm SW 
201753Z 34007KT 10SM SCT040 BKN070 OVC080 M08/M14 A3064 RMK AO2 SLP395 T10781144 11078 21111 50002
TAF
KMKC 
11nm N 
201722Z 2018/2118 01006KT 1SM -SN BKN020 FM202000 02007KT P6SM FEW080 FM210300 05005KT P6SM FEW250 FM211200 14008KT P6SM FEW250
KIXD 
15nm SW 
201722Z 2018/2118 01006KT P6SM BKN040 FM202100 02007KT P6SM FEW080 FM210300 05005KT P6SM FEW250 FM211200 14008KT P6SM FEW250
NOTAMs
Click for the latest NOTAMs
NOTAMs are issued by the DoD/FAA and will open in a separate window not controlled by AirNav.

 

 
 

Would you like to see your business listed on this page?

 If your business provides an interesting product or service to pilots, flight crews, aircraft, or users of the St Joseph Medical Center Heliport, you should consider listing it here.  To start the listing process, click on the button below
 
Add a business
 

Other Pages about St Joseph Medical Center Heliport

Update a link
 
Copyright © AirNav, LLC. All rights reserved. Privacy Policy  Contact